User: anonymous   Login
Location: Unspecified
(0.0000°N, 0.0000°E)
Time: 16:01:58
(UTC+00:00)
Language:

A-11 Canister half - Orbit

View from above orbital plane
View from above orbital plane
View from above satellite
View from above satellite

Ground track
Ground track

The orbit data is extracted from the following two-line orbital elements,

1 00051U 60009C   15063.54516288 -.00000038  00000-0  45343-3 0  9999
2 00051 047.2115 204.1873 0106339 178.8931 181.2108 12.18252104428564
Epoch (UTC): 04 March 2015 13:05:02
Eccentricity: 0.0106339
inclination: 47.2115°
perigee height: 1515 km
apogee height: 1685 km
right ascension of ascending node: 204.1873°
argument of perigee: 178.8931°
revolutions per day: 12.18252104
mean anomaly at epoch: 181.2108°
orbit number at epoch: 42856

The dashed part of the orbit path shows where the satellite is in the earth's shadow,  

DLR